GW7043 Weather Reports


Display with metric or nautical units.
time (UTC)temp
F
wind
direction
speed
MPH
gust
MPH
rain 1hr
in
rain 24hr
in
rain mn
in
humidity
%
barometer
mb
20260906120031 72 216 0.0 0.0 0.00 0.00 0.00 97 1013.2
20260906115531 72 220 0.0 2.0 0.00 0.00 0.00 97 1013.2
20260906115026 72 216 0.0 0.0 0.00 0.00 0.00 97 1013.2
20260906114526 72 319 0.0 2.0 0.00 0.00 0.00 97 1013.3
20260906114022 71 228 2.0 2.0 0.00 0.00 0.00 97 1013.1
20260906113520 71 213 0.0 2.0 0.00 0.00 0.00 97 1013.2
20260906113016 71 192 2.0 2.0 0.00 0.00 0.00 97 1013.1
20260906112510 71 199 1.0 2.0 0.00 0.00 0.00 97 1013.2
20260906112007 71 228 0.0 2.0 0.00 0.00 0.00 97 1013.2
20260906111506 71 219 0.0 2.0 0.00 0.00 0.00 97 1013.0
20260906111002 71 241 0.0 2.0 0.00 0.00 0.00 97 1013.1
20260906110456 71 198 2.0 2.0 0.00 0.00 0.00 96 1013.2
20260906105955 71 190 2.0 2.0 0.00 0.00 0.00 97 1013.3
20260906105451 71 230 0.0 2.0 0.00 0.00 0.00 97 1013.2
20260906104947 71 220 1.0 2.0 0.00 0.00 0.00 97 1013.1
20260906104445 71 212 2.0 2.0 0.00 0.00 0.00 97 1013.2
20260906103945 71 222 0.0 1.0 0.00 0.00 0.00 97 1013.2
20260906103443 71 228 0.0 1.0 0.00 0.00 0.00 97 1013.1
20260906102938 71 237 0.0 2.0 0.00 0.00 0.00 96 1013.2
20260906102438 71 196 2.0 3.0 0.00 0.00 0.00 96 1013.2
20260906101933 71 196 2.0 2.0 0.00 0.00 0.00 97 1013.2
20260906101428 71 223 0.0 1.0 0.00 0.00 0.00 97 1013.1
20260906100924 71 221 0.0 0.0 0.00 0.00 0.00 97 1013.0
20260906100423 71 294 0.0 1.0 0.00 0.00 0.00 97 1013.1
20260906095918 71 203 0.0 1.0 0.00 0.00 0.00 96 1013.0
20260906095414 71 195 2.0 2.0 0.00 0.00 0.00 96 1013.0
20260906094914 71 204 1.0 2.0 0.00 0.00 0.00 96 1012.9
20260906094408 71 322 0.0 0.0 0.00 0.00 0.00 96 1013.0
20260906093905 71 300 0.0 0.0 0.00 0.00 0.00 96 1012.9
20260906093401 71 221 1.0 1.0 0.00 0.00 0.00 97 1012.6
20260906092901 71 244 0.0 1.0 0.00 0.00 0.00 97 1012.7
20260906092400 71 189 2.0 2.0 0.00 0.00 0.00 96 1012.8
20260906091856 71 208 2.0 2.0 0.00 0.00 0.00 96 1012.8
20260906091352 71 194 1.0 2.0 0.00 0.00 0.00 96 1012.5
20260906090848 71 187 2.0 2.0 0.00 0.00 0.00 96 1012.8
20260906090347 72 171 2.0 2.0 0.00 0.00 0.00 97 1012.7
20260906085842 72 208 0.0 1.0 0.00 0.00 0.00 97 1012.7
20260906085341 71 210 1.0 2.0 0.00 0.00 0.00 96 1012.7
20260906084836 72 197 2.0 2.0 0.00 0.00 0.00 96 1012.7
20260906084336 72 195 1.0 2.0 0.00 0.00 0.00 96 1012.8
20260906083831 72 214 1.0 2.0 0.00 0.00 0.00 96 1012.7
20260906083327 71 224 0.0 0.0 0.00 0.00 0.00 96 1012.6
20260906082826 71 201 2.0 2.0 0.00 0.00 0.00 96 1012.6
20260906082321 72 195 2.0 2.0 0.00 0.00 0.00 96 1012.7
20260906081817 72 191 1.0 1.0 0.00 0.00 0.00 96 1012.6
20260906081313 72 185 2.0 2.0 0.00 0.00 0.00 96 1012.6
20260906080809 72 192 1.0 2.0 0.00 0.00 0.00 96 1012.6
20260906080305 72 187 0.0 1.0 0.00 0.00 0.00 96 1012.6
20260906075804 72 220 0.0 2.0 0.00 0.00 0.00 96 1012.4
20260906075306 72 188 2.0 2.0 0.00 0.00 0.00 96 1012.6
20260906074759 72 182 1.0 1.0 0.00 0.00 0.00 96 1012.7
20260906074259 72 199 1.0 1.0 0.00 0.00 0.00 96 1012.6
20260906073759 72 205 0.0 1.0 0.00 0.00 0.00 96 1012.5
20260906073259 72 231 0.0 1.0 0.00 0.00 0.00 96 1012.7
20260906072755 72 204 1.0 1.0 0.00 0.00 0.00 96 1012.9
20260906072250 72 186 1.0 2.0 0.00 0.00 0.00 96 1012.9
20260906071746 72 225 0.0 1.0 0.00 0.00 0.00 96 1012.7
20260906071246 72 169 2.0 2.0 0.00 0.00 0.00 96 1012.7
20260906070743 72 179 0.0 1.0 0.00 0.00 0.00 96 1012.6
20260906070238 72 315 0.0 1.0 0.00 0.00 0.00 96 1012.9
20260906065737 72 202 1.0 2.0 0.00 0.00 0.00 96 1012.7
20260906065233 72 177 2.0 2.0 0.00 0.00 0.00 96 1012.7
20260906064729 72 245 0.0 1.0 0.00 0.00 0.00 96 1012.8
20260906064224 72 202 1.0 1.0 0.00 0.00 0.00 96 1013.1
20260906063719 72 213 0.0 1.0 0.00 0.00 0.00 96 1012.8
20260906063215 72 178 1.0 2.0 0.00 0.00 0.00 96 1013.1
20260906062710 72 172 2.0 3.0 0.00 0.00 0.00 95 1012.8
20260906062209 73 169 2.0 2.0 0.00 0.00 0.00 95 1012.7
20260906061705 73 192 1.0 1.0 0.00 0.00 0.00 95 1012.6
20260906061201 73 220 0.0 1.0 0.00 0.00 0.00 95 1012.9
20260906060657 73 205 0.0 0.0 0.00 0.00 0.00 95 1013.0
20260906060154 73 200 1.0 2.0 0.00 0.00 0.00 95 1013.0
20260906055649 73 209 0.0 2.0 0.00 0.00 0.00 95 1013.0
20260906055144 73 221 0.0 1.0 0.00 0.00 0.00 95 1013.1
20260906054639 73 196 0.0 2.0 0.00 0.00 0.00 95 1013.2
20260906054134 73 238 1.0 2.0 0.00 0.00 0.00 96 1013.1
20260906053631 73 231 1.0 2.0 0.00 0.00 0.00 96 1013.1
20260906053131 73 197 3.0 3.0 0.00 0.00 0.00 96 1013.0
20260906052627 73 223 1.0 1.0 0.00 0.00 0.00 96 1013.0
20260906052123 73 227 0.0 2.0 0.00 0.00 0.00 96 1013.3
20260906051620 73 250 0.0 1.0 0.00 0.00 0.00 95 1013.3
20260906051114 73 232 0.0 1.0 0.00 0.00 0.00 95 1013.3
20260906050610 73 241 1.0 2.0 0.00 0.00 0.00 95 1013.2
20260906050105 73 183 2.0 2.0 0.00 0.00 0.00 95 1013.2
20260906045603 73 186 1.0 1.0 0.00 0.00 0.00 95 1013.2
20260906045059 73 184 1.0 2.0 0.00 0.00 0.00 95 1013.2
20260906044554 73 183 1.0 2.0 0.00 0.00 0.00 94 1013.2
20260906044049 73 219 0.0 1.0 0.00 0.00 0.00 94 1013.2
20260906043545 73 196 0.0 2.0 0.00 0.00 0.00 94 1013.2
20260906043041 73 225 2.0 2.0 0.00 0.00 0.00 95 1013.0
20260906042539 73 215 0.0 2.0 0.00 0.00 0.00 95 1013.2
20260906042035 73 234 0.0 1.0 0.00 0.00 0.00 95 1013.2
20260906041531 73 222 1.0 2.0 0.00 0.00 0.00 95 1013.1
20260906041031 73 214 0.0 0.0 0.00 0.00 0.00 95 1013.1
20260906040526 73 203 2.0 2.0 0.00 0.00 0.00 95 1013.3
20260906040022 73 180 1.0 2.0 0.00 0.11 0.11 95 1013.2
20260906035516 73 303 0.0 1.0 0.00 0.11 0.11 95 1013.0
20260906035013 73 238 0.0 1.0 0.00 0.11 0.11 95 1013.3
20260906034512 73 209 1.0 2.0 0.00 0.11 0.11 95 1013.2
20260906034007 73 277 0.0 1.0 0.00 0.11 0.11 94 1013.3
20260906033502 73 288 0.0 0.0 0.00 0.11 0.11 94 1013.3
20260906032958 73 220 1.0 2.0 0.00 0.11 0.11 94 1013.3
20260906032454 73 310 0.0 1.0 0.00 0.11 0.11 94 1013.4
20260906031954 73 327 0.0 1.0 0.00 0.11 0.11 93 1013.5
20260906031450 73 282 0.0 0.0 0.00 0.11 0.11 93 1013.5
20260906030945 74 230 2.0 2.0 0.00 0.11 0.11 94 1013.7
20260906030439 74 214 0.0 2.0 0.00 0.11 0.11 94 1013.7
20260906025934 74 215 1.0 2.0 0.00 0.11 0.11 94 1013.9
20260906025434 73 333 0.0 2.0 0.00 0.11 0.11 94 1014.1
20260906024933 74 191 2.0 4.0 0.00 0.11 0.11 94 1014.5
20260906024433 73 170 2.0 2.0 0.00 0.11 0.11 93 1014.2
20260906023933 74 262 0.0 1.0 0.00 0.11 0.11 93 1014.1
20260906023430 74 2 1.0 2.0 0.00 0.11 0.11 94 1014.4
20260906022930 74 289 0.0 4.0 0.00 0.11 0.11 94 1014.7
20260906022425 74 320 0.0 1.0 0.00 0.11 0.11 93 1014.1
20260906021920 74 43 1.0 4.0 0.00 0.11 0.11 93 1014.2
20260906021420 74 195 3.0 6.0 0.00 0.11 0.11 94 1014.4
20260906020914 74 208 4.0 4.0 0.00 0.11 0.11 94 1014.4
20260906020409 74 244 0.0 1.0 0.00 0.11 0.11 95 1014.1
20260906015903 74 182 2.0 2.0 0.00 0.11 0.11 95 1014.0
20260906015403 74 212 2.0 2.0 0.00 0.11 0.11 95 1014.2
20260906014903 74 168 2.0 2.0 0.00 0.11 0.11 94 1014.3
20260906014403 74 161 2.0 3.0 0.00 0.11 0.11 94 1014.0
20260906013859 74 233 2.0 4.0 0.00 0.11 0.11 94 1013.7
20260906013354 74 184 2.0 2.0 0.00 0.11 0.11 94 1013.7
20260906012850 74 201 2.0 2.0 0.00 0.11 0.11 94 1013.4
20260906012344 74 194 2.0 2.0 0.00 0.11 0.11 94 1013.5
20260906011844 74 210 0.0 1.0 0.00 0.11 0.11 94 1013.4
20260906011339 74 139 3.0 3.0 0.00 0.11 0.11 94 1013.6
20260906010835 74 216 1.0 2.0 0.00 0.11 0.11 94 1014.0
20260906010331 74 196 2.0 2.0 0.00 0.11 0.11 93 1013.6
20260906005826 74 177 1.0 2.0 0.00 0.11 0.11 93 1013.3
20260906005325 74 184 2.0 2.0 0.00 0.11 0.11 93 1013.0
20260906004824 75 156 2.0 2.0 0.00 0.11 0.11 92 1012.8
20260906004324 75 187 2.0 2.0 0.00 0.11 0.11 91 1012.7
20260906003819 75 215 2.0 2.0 0.00 0.11 0.11 91 1012.9
20260906003315 75 180 2.0 3.0 0.00 0.11 0.11 90 1012.4
20260906002810 76 179 1.0 2.0 0.00 0.11 0.11 90 1012.3
20260906002309 76 188 2.0 2.0 0.00 0.11 0.11 88 1012.3
20260906001805 77 164 2.0 2.0 0.00 0.11 0.11 88 1012.5
20260906001300 77 175 2.0 3.0 0.14 0.11 0.11 85 1012.2
20260906000755 78 226 2.0 4.0 0.64 0.11 0.11 85 1012.3
20260906000256 80 175 2.0 2.0 0.52 0.09 0.09 80 1012.7
20260905235750 81 201 1.0 3.0 0.02 0.00 0.00 78 1012.6
20260905235250 82 164 4.0 6.0 0.00 0.00 0.00 73 1013.0
20260905234746 83 228 1.0 4.0 0.00 0.00 0.00 71 1013.2
20260905234241 85 203 2.0 5.0 0.00 0.00 0.00 67 1012.9
20260905233737 86 195 2.0 3.0 0.00 0.00 0.00 66 1012.8
20260905233236 88 193 2.0 8.0 0.00 0.00 0.00 64 1012.7
20260905232736 88 9 2.0 4.0 0.00 0.00 0.00 66 1012.2
20260905232232 88 231 3.0 6.0 0.00 0.00 0.00 65 1011.6
20260905231727 89 203 5.0 6.0 0.00 0.00 0.00 64 1011.4
20260905231223 89 232 2.0 4.0 0.00 0.00 0.00 64 1011.9
20260905230719 89 204 3.0 5.0 0.00 0.00 0.00 64 1011.8
20260905230216 89 204 4.0 6.0 0.00 0.00 0.00 64 1011.8
20260905225716 90 171 3.0 4.0 0.00 0.00 0.00 65 1012.0
20260905225211 90 213 2.0 8.0 0.00 0.00 0.00 64 1011.8
20260905224711 90 161 3.0 4.0 0.00 0.00 0.00 63 1011.9
20260905224206 90 204 3.0 5.0 0.00 0.00 0.00 63 1011.7
20260905223702 90 191 4.0 5.0 0.00 0.00 0.00 63 1011.8
20260905223159 90 193 3.0 4.0 0.00 0.00 0.00 63 1011.8
20260905222654 91 168 4.0 13.0 0.00 0.00 0.00 62 1011.6
20260905222154 91 184 4.0 6.0 0.00 0.00 0.00 63 1011.7
20260905221649 91 218 3.0 6.0 0.00 0.00 0.00 63 1011.5
20260905221146 91 273 5.0 6.0 0.00 0.00 0.00 62 1011.6
20260905220642 92 171 4.0 7.0 0.00 0.00 0.00 62 1011.6
20260905220138 92 203 2.0 4.0 0.00 0.00 0.00 61 1011.4
20260905215637 92 225 3.0 9.0 0.00 0.00 0.00 62 1011.6
20260905215133 93 180 6.0 8.0 0.00 0.00 0.00 61 1011.5
20260905214629 93 148 7.0 7.0 0.00 0.00 0.00 60 1011.2
20260905214129 93 252 4.0 4.0 0.00 0.00 0.00 59 1011.1
20260905213624 94 210 3.0 11.0 0.00 0.00 0.00 57 1011.3
20260905213119 97 219 8.0 9.0 0.00 0.00 0.00 53 1011.3
20260905212614 98 202 3.0 4.0 0.00 0.00 0.00 46 1011.2
20260905212114 99 212 4.0 4.0 0.00 0.00 0.00 45 1011.2
20260905211609 99 204 4.0 4.0 0.00 0.00 0.00 43 1011.3
20260905211105 98 183 2.0 4.0 0.00 0.00 0.00 43 1011.4
20260905210601 98 225 2.0 4.0 0.00 0.00 0.00 46 1011.3
20260905210055 98 173 3.0 4.0 0.00 0.00 0.00 44 1011.5
20260905205554 99 212 3.0 4.0 0.00 0.00 0.00 44 1011.4
20260905205049 99 232 1.0 3.0 0.00 0.00 0.00 45 1011.5
20260905204549 99 243 1.0 4.0 0.00 0.00 0.00 45 1011.4
20260905204044 99 201 1.0 3.0 0.00 0.00 0.00 43 1011.6
20260905203543 99 157 2.0 3.0 0.00 0.00 0.00 45 1011.7
20260905203039 98 166 2.0 4.0 0.00 0.00 0.00 44 1011.7
20260905202535 98 193 2.0 3.0 0.00 0.00 0.00 45 1012.0
20260905202030 98 208 4.0 5.0 0.00 0.00 0.00 44 1011.9
20260905201526 97 252 2.0 3.0 0.00 0.00 0.00 46 1012.0
20260905201025 97 31 0.0 2.0 0.00 0.00 0.00 48 1012.2
20260905200521 97 221 2.0 2.0 0.00 0.00 0.00 46 1012.4
20260905200020 97 221 0.0 2.0 0.00 0.00 0.00 46 1012.4
20260905195520 97 231 0.0 0.0 0.00 0.00 0.00 46 1012.4
20260905195016 97 59 1.0 2.0 0.00 0.00 0.00 47 1012.4
20260905194516 96 208 2.0 4.0 0.00 0.00 0.00 48 1012.6
20260905194016 97 219 2.0 6.0 0.00 0.00 0.00 47 1012.5
20260905193515 96 188 0.0 4.0 0.00 0.00 0.00 49 1012.6
20260905193011 96 195 2.0 4.0 0.00 0.00 0.00 48 1012.6
20260905192506 97 196 3.0 3.0 0.00 0.00 0.00 47 1012.8
20260905192002 96 206 2.0 4.0 0.00 0.00 0.00 47 1012.7
20260905191501 96 181 3.0 5.0 0.00 0.00 0.00 46 1012.8
20260905191000 96 222 2.0 5.0 0.00 0.00 0.00 46 1012.9
20260905190458 96 333 2.0 3.0 0.00 0.00 0.00 48 1013.0
20260905185957 96 236 2.0 2.0 0.00 0.00 0.00 49 1013.0
20260905185452 96 227 1.0 2.0 0.00 0.00 0.00 49 1013.0
20260905184951 95 202 4.0 6.0 0.00 0.00 0.00 50 1012.9
20260905184446 96 164 4.0 5.0 0.00 0.00 0.00 48 1013.1
20260905183944 96 214 2.0 3.0 0.00 0.00 0.00 49 1013.1
20260905183439 96 261 2.0 3.0 0.00 0.00 0.00 49 1013.4
20260905182934 96 215 3.0 4.0 0.00 0.00 0.00 51 1013.3
20260905182433 96 196 1.0 3.0 0.00 0.00 0.00 48 1013.7
20260905181929 96 192 1.0 3.0 0.00 0.00 0.00 48 1013.7
20260905181429 96 119 0.0 2.0 0.00 0.00 0.00 48 1013.5
20260905180928 96 240 2.0 3.0 0.00 0.00 0.00 49 1013.5
20260905180423 96 161 2.0 4.0 0.00 0.00 0.00 47 1013.5
20260905175918 96 160 2.0 3.0 0.00 0.00 0.00 48 1013.4
20260905175418 95 229 2.0 3.0 0.00 0.00 0.00 49 1013.7
20260905174913 95 157 2.0 3.0 0.00 0.00 0.00 50 1013.9
20260905174409 95 176 2.0 3.0 0.00 0.00 0.00 49 1013.9
20260905173904 95 159 2.0 7.0 0.00 0.00 0.00 50 1014.0
20260905173400 95 176 2.0 4.0 0.00 0.00 0.00 50 1014.0
20260905172855 95 175 0.0 3.0 0.00 0.00 0.00 51 1014.2
20260905172353 95 172 2.0 4.0 0.00 0.00 0.00 49 1014.3
20260905171849 96 179 2.0 6.0 0.00 0.00 0.00 49 1014.4
20260905171345 96 176 2.0 3.0 0.00 0.00 0.00 49 1014.2
20260905170842 95 183 2.0 4.0 0.00 0.00 0.00 54 1014.4
20260905170338 95 163 6.0 6.0 0.00 0.00 0.00 52 1014.2
20260905165837 95 198 3.0 5.0 0.00 0.00 0.00 52 1014.6
20260905165332 95 204 0.0 4.0 0.00 0.00 0.00 53 1014.6
20260905164832 94 222 3.0 3.0 0.00 0.00 0.00 54 1014.5
20260905164327 94 172 2.0 5.0 0.00 0.00 0.00 53 1014.6
20260905163822 94 163 4.0 5.0 0.00 0.00 0.00 53 1014.7
20260905163319 94 353 1.0 6.0 0.00 0.00 0.00 53 1014.7
20260905162815 94 213 4.0 4.0 0.00 0.00 0.00 54 1014.9
20260905162314 94 307 1.0 4.0 0.00 0.00 0.00 55 1015.0
20260905161809 94 167 4.0 5.0 0.00 0.00 0.00 55 1015.0
20260905161308 94 207 2.0 4.0 0.00 0.00 0.00 55 1014.9
20260905160806 94 177 3.0 5.0 0.00 0.00 0.00 56 1015.0
20260905160300 94 327 1.0 4.0 0.00 0.00 0.00 56 1015.0
20260905155755 93 179 1.0 3.0 0.00 0.00 0.00 56 1014.9
20260905155254 93 283 0.0 4.0 0.00 0.00 0.00 56 1015.1
20260905154748 93 180 0.0 2.0 0.00 0.00 0.00 56 1015.0
20260905154245 92 190 2.0 3.0 0.00 0.00 0.00 56 1015.1
20260905153740 92 152 0.0 3.0 0.00 0.00 0.00 58 1015.2
20260905153236 91 204 2.0 3.0 0.00 0.00 0.00 61 1015.2
20260905152731 91 184 2.0 2.0 0.00 0.00 0.00 60 1015.2
20260905152230 90 124 0.0 3.0 0.00 0.00 0.00 62 1015.2
20260905151730 89 217 0.0 2.0 0.00 0.00 0.00 62 1015.2
20260905151226 88 178 3.0 3.0 0.00 0.00 0.00 64 1015.3
20260905150721 88 206 3.0 6.0 0.00 0.00 0.00 65 1015.2
20260905150220 87 202 2.0 3.0 0.00 0.00 0.00 68 1015.3
20260905145718 86 224 0.0 2.0 0.00 0.00 0.00 68 1015.4
20260905145213 85 166 0.0 3.0 0.00 0.00 0.00 70 1015.3
20260905144712 85 170 0.0 3.0 0.00 0.00 0.00 70 1015.4
20260905144212 85 179 1.0 2.0 0.00 0.00 0.00 71 1015.2
20260905143711 84 165 2.0 3.0 0.00 0.00 0.00 71 1015.4
20260905143206 84 188 2.0 2.0 0.00 0.00 0.00 71 1015.4
20260905142704 84 320 1.0 2.0 0.00 0.00 0.00 72 1015.6
20260905142205 83 306 1.0 2.0 0.00 0.00 0.00 73 1015.6
20260905141700 82 224 0.0 2.0 0.00 0.00 0.00 77 1015.3
20260905141156 82 203 1.0 3.0 0.00 0.00 0.00 77 1015.6
20260905140651 82 182 0.0 3.0 0.00 0.00 0.00 77 1015.6
20260905140150 81 185 2.0 3.0 0.00 0.00 0.00 78 1015.4
20260905135646 80 210 2.0 2.0 0.00 0.00 0.00 79 1015.5
20260905135141 80 225 1.0 2.0 0.00 0.00 0.00 79 1015.5
20260905134635 80 194 1.0 1.0 0.00 0.00 0.00 81 1015.5
20260905134134 79 198 1.0 2.0 0.00 0.00 0.00 81 1015.6
20260905133630 79 225 0.0 2.0 0.00 0.00 0.00 83 1015.6
20260905133130 78 196 1.0 2.0 0.00 0.00 0.00 83 1015.6
20260905132630 78 175 2.0 2.0 0.00 0.00 0.00 84 1015.5
20260905132124 78 220 0.0 1.0 0.00 0.00 0.00 86 1015.5
20260905131620 77 229 2.0 2.0 0.00 0.00 0.00 87 1015.7
20260905131115 77 225 1.0 2.0 0.00 0.00 0.00 89 1015.6
20260905130615 77 222 1.0 1.0 0.00 0.00 0.00 89 1015.7
20260905130109 76 201 1.0 1.0 0.00 0.00 0.00 90 1015.8
20260905125608 76 217 1.0 2.0 0.00 0.00 0.00 91 1015.6
20260905125104 76 236 1.0 2.0 0.00 0.00 0.00 91 1015.6
20260905124601 75 183 0.0 2.0 0.00 0.00 0.00 91 1015.7
20260905124056 75 185 0.0 1.0 0.00 0.00 0.00 92 1015.7
20260905123552 75 174 1.0 2.0 0.00 0.00 0.00 92 1015.5
20260905123049 75 222 0.0 2.0 0.00 0.00 0.00 93 1015.8
20260905122548 75 234 0.0 1.0 0.00 0.00 0.00 93 1015.7
20260905122043 74 215 1.0 2.0 0.00 0.00 0.00 94 1015.6
20260905121538 74 211 0.0 2.0 0.00 0.00 0.00 94 1015.6
20260905121033 74 227 2.0 2.0 0.00 0.00 0.00 95 1015.6
20260905120532 74 217 0.0 1.0 0.00 0.00 0.00 95 1015.6